| time (UTC) | temp F | wind direction | speed MPH | gust MPH | rain 1hr in | rain 24hr in | rain mn in | humidity % | barometer mb |
| 20260504141009 | 62 | 215 | 6.0 | 14.0 | 0.00 | 0.00 | 0.00 | 37 | 1012.7 |
| 20260504140508 | 62 | 197 | 4.0 | 11.0 | 0.00 | 0.00 | 0.00 | 37 | 1012.7 |
| 20260504130510 | 57 | 269 | 1.0 | 9.0 | 0.00 | 0.00 | 0.00 | 43 | 1013.1 |
| 20260504110507 | 51 | 250 | 2.0 | 5.0 | 0.00 | 0.00 | 0.00 | 52 | 1013.2 |
| 20260504100506 | 46 | 226 | 1.0 | 3.0 | 0.00 | 0.00 | 0.00 | 58 | 1012.9 |
| 20260504082003 | 48 | 202 | 1.0 | 5.0 | 0.00 | 0.00 | 0.00 | 56 | 1012.6 |
| 20260504081508 | 48 | 202 | 1.0 | 4.0 | 0.00 | 0.00 | 0.00 | 56 | 1012.6 |
| 20260504081004 | 48 | 215 | 1.0 | 4.0 | 0.00 | 0.00 | 0.00 | 55 | 1012.6 |
| 20260504080503 | 48 | 197 | 1.0 | 4.0 | 0.00 | 0.00 | 0.00 | 54 | 1012.5 |
| 20260504050507 | 48 | 300 | 0.0 | 2.0 | 0.00 | 0.00 | 0.00 | 52 | 1011.9 |
| 20260504045507 | 49 | 263 | 1.0 | 2.0 | 0.00 | 0.00 | 0.00 | 52 | 1012.0 |
| 20260504045009 | 49 | 236 | 1.0 | 3.0 | 0.00 | 0.00 | 0.00 | 51 | 1012.0 |
| 20260504044536 | 49 | 206 | 1.0 | 3.0 | 0.00 | 0.00 | 0.00 | 51 | 1012.0 |
| 20260504044006 | 49 | 260 | 1.0 | 3.0 | 0.00 | 0.00 | 0.00 | 50 | 1011.9 |
| 20260504043507 | 49 | 271 | 1.0 | 2.0 | 0.00 | 0.00 | 0.00 | 50 | 1011.9 |
| 20260504043019 | 49 | 278 | 1.0 | 2.0 | 0.00 | 0.00 | 0.00 | 49 | 1011.9 |
| 20260504042508 | 50 | 227 | 0.0 | 1.0 | 0.00 | 0.00 | 0.00 | 49 | 1011.8 |
| 20260504042009 | 50 | 227 | 0.0 | 2.0 | 0.00 | 0.00 | 0.00 | 50 | 1011.8 |
| 20260504041517 | 50 | 269 | 0.0 | 2.0 | 0.00 | 0.00 | 0.00 | 49 | 1011.7 |
| 20260504041007 | 50 | 269 | 1.0 | 1.0 | 0.00 | 0.00 | 0.00 | 48 | 1011.7 |
| 20260504040510 | 50 | 281 | 1.0 | 3.0 | 0.00 | 0.00 | 0.00 | 47 | 1011.6 |
| 20260504040022 | 51 | 286 | 0.0 | 3.0 | 0.00 | 0.00 | 0.00 | 47 | 1011.6 |
| 20260504035511 | 51 | 283 | 1.0 | 2.0 | 0.00 | 0.00 | 0.00 | 47 | 1011.6 |
| 20260504035010 | 51 | 294 | 1.0 | 2.0 | 0.00 | 0.00 | 0.00 | 46 | 1011.6 |
| 20260504034533 | 51 | 285 | 0.0 | 2.0 | 0.00 | 0.00 | 0.00 | 46 | 1011.6 |
| 20260504034006 | 51 | 290 | 1.0 | 2.0 | 0.00 | 0.00 | 0.00 | 46 | 1011.7 |
| 20260504033513 | 51 | 240 | 0.0 | 2.0 | 0.00 | 0.00 | 0.00 | 47 | 1011.7 |
| 20260504033035 | 51 | 269 | 0.0 | 1.0 | 0.00 | 0.00 | 0.00 | 46 | 1011.7 |
| 20260504032507 | 51 | 269 | 0.0 | 1.0 | 0.00 | 0.00 | 0.00 | 1011.7 | |
| 20260504032009 | 51 | 269 | 1.0 | 1.0 | 0.00 | 0.00 | 0.00 | 1011.7 | |
| 20260504031516 | 51 | 273 | 1.0 | 1.0 | 0.00 | 0.00 | 0.00 | 44 | 1011.6 |
| 20260504031008 | 51 | 263 | 1.0 | 2.0 | 0.00 | 0.00 | 0.00 | 44 | 1011.6 |
| 20260504030510 | 51 | 263 | 1.0 | 2.0 | 0.00 | 0.00 | 0.00 | 44 | 1011.7 |
| 20260504030020 | 51 | 272 | 1.0 | 1.0 | 0.00 | 0.00 | 0.00 | 44 | 1011.6 |
| 20260504025508 | 51 | 284 | 1.0 | 1.0 | 0.00 | 0.00 | 0.00 | 46 | 1011.6 |
| 20260504025009 | 51 | 284 | 1.0 | 1.0 | 0.00 | 0.00 | 0.00 | 45 | 1011.6 |
| 20260504024525 | 51 | 284 | 1.0 | 1.0 | 0.00 | 0.00 | 0.00 | 46 | 1011.6 |
| 20260504024012 | 52 | 284 | 1.0 | 1.0 | 0.00 | 0.00 | 0.00 | 46 | 1011.7 |
| 20260504023512 | 51 | 285 | 1.0 | 2.0 | 0.00 | 0.00 | 0.00 | 44 | 1011.7 |
| 20260504023026 | 51 | 286 | 1.0 | 1.0 | 0.00 | 0.00 | 0.00 | 45 | 1011.7 |
| 20260504022511 | 51 | 288 | 1.0 | 1.0 | 0.00 | 0.00 | 0.00 | 46 | 1011.7 |
| 20260504022010 | 51 | 291 | 1.0 | 1.0 | 0.00 | 0.00 | 0.00 | 47 | 1011.7 |
| 20260504021518 | 50 | 291 | 1.0 | 1.0 | 0.00 | 0.00 | 0.00 | 47 | 1011.7 |
| 20260504021009 | 50 | 294 | 1.0 | 1.0 | 0.00 | 0.00 | 0.00 | 48 | 1011.7 |
| 20260504020507 | 50 | 294 | 0.0 | 1.0 | 0.00 | 0.00 | 0.00 | 49 | 1011.7 |
| 20260504020020 | 51 | 294 | 0.0 | 1.0 | 0.00 | 0.00 | 0.00 | 49 | 1011.6 |
| 20260504015508 | 51 | 294 | 0.0 | 2.0 | 0.00 | 0.00 | 0.00 | 48 | 1011.6 |
| 20260504015009 | 52 | 294 | 0.0 | 2.0 | 0.00 | 0.00 | 0.00 | 47 | 1011.6 |
| 20260504014523 | 52 | 294 | 0.0 | 2.0 | 0.00 | 0.00 | 0.00 | 44 | 1011.5 |
| 20260504014010 | 53 | 298 | 0.0 | 2.0 | 0.00 | 0.00 | 0.00 | 42 | 1011.5 |
| 20260504013509 | 53 | 298 | 0.0 | 2.0 | 0.00 | 0.00 | 0.00 | 43 | 1011.5 |
| 20260504013033 | 53 | 298 | 1.0 | 2.0 | 0.00 | 0.00 | 0.00 | 41 | 1011.5 |
| 20260504012508 | 54 | 298 | 0.0 | 2.0 | 0.00 | 0.00 | 0.00 | 41 | 1011.5 |
| 20260504012010 | 55 | 298 | 0.0 | 2.0 | 0.00 | 0.00 | 0.00 | 40 | 1011.5 |
| 20260504011526 | 55 | 292 | 1.0 | 3.0 | 0.00 | 0.00 | 0.00 | 39 | 1011.4 |
| 20260504011008 | 55 | 188 | 0.0 | 3.0 | 0.00 | 0.00 | 0.00 | 39 | 1011.4 |
| 20260504010518 | 55 | 257 | 1.0 | 3.0 | 0.00 | 0.00 | 0.00 | 39 | 1011.3 |
| 20260504010017 | 55 | 196 | 1.0 | 3.0 | 0.00 | 0.00 | 0.00 | 36 | 1011.3 |
| 20260504005508 | 55 | 217 | 1.0 | 4.0 | 0.00 | 0.00 | 0.00 | 37 | 1011.2 |
| 20260504005009 | 55 | 276 | 0.0 | 4.0 | 0.00 | 0.00 | 0.00 | 37 | 1011.2 |
| 20260504004520 | 55 | 352 | 0.0 | 2.0 | 0.00 | 0.00 | 0.00 | 37 | 1011.2 |
| 20260504004010 | 56 | 243 | 0.0 | 2.0 | 0.00 | 0.00 | 0.00 | 35 | 1011.2 |
| 20260504003510 | 56 | 249 | 0.0 | 2.0 | 0.00 | 0.00 | 0.00 | 35 | 1011.1 |
| 20260504003025 | 56 | 288 | 0.0 | 2.0 | 0.00 | 0.00 | 0.00 | 34 | 1011.0 |
| 20260504002509 | 56 | 219 | 0.0 | 2.0 | 0.00 | 0.00 | 0.00 | 34 | 1010.9 |
| 20260504002010 | 56 | 319 | 0.0 | 2.0 | 0.00 | 0.00 | 0.00 | 35 | 1010.8 |
| 20260504001526 | 56 | 263 | 0.0 | 2.0 | 0.00 | 0.00 | 0.00 | 34 | 1010.7 |
| 20260504001010 | 57 | 198 | 0.0 | 2.0 | 0.00 | 0.00 | 0.00 | 35 | 1010.6 |
| 20260504000508 | 57 | 177 | 0.0 | 2.0 | 0.00 | 0.00 | 0.00 | 34 | 1010.5 |
| 20260504000028 | 57 | 183 | 0.0 | 2.0 | 0.00 | 0.00 | 0.00 | 33 | 1010.4 |
| 20260503235507 | 57 | 231 | 0.0 | 2.0 | 0.00 | 0.00 | 0.00 | 31 | 1010.4 |
| 20260503235008 | 58 | 304 | 1.0 | 3.0 | 0.00 | 0.00 | 0.00 | 31 | 1010.3 |
| 20260503234520 | 58 | 292 | 1.0 | 6.0 | 0.00 | 0.00 | 0.00 | 31 | 1010.2 |
| 20260503234016 | 58 | 335 | 3.0 | 10.0 | 0.00 | 0.00 | 0.00 | 30 | 1010.2 |
| 20260503233508 | 58 | 296 | 1.0 | 10.0 | 0.00 | 0.00 | 0.00 | 30 | 1010.2 |
| 20260503233024 | 58 | 309 | 3.0 | 7.0 | 0.00 | 0.00 | 0.00 | 30 | 1010.1 |
| 20260503232510 | 58 | 283 | 2.0 | 7.0 | 0.00 | 0.00 | 0.00 | 30 | 1010.2 |
| 20260503232016 | 58 | 313 | 2.0 | 7.0 | 0.00 | 0.00 | 0.00 | 29 | 1010.1 |
| 20260503231525 | 58 | 327 | 1.0 | 7.0 | 0.00 | 0.00 | 0.00 | 29 | 1010.1 |
| 20260503231012 | 59 | 288 | 3.0 | 9.0 | 0.00 | 0.00 | 0.00 | 29 | 1010.0 |
| 20260503230509 | 59 | 323 | 3.0 | 9.0 | 0.00 | 0.00 | 0.00 | 29 | 1009.9 |
| 20260503230028 | 59 | 326 | 1.0 | 9.0 | 0.00 | 0.00 | 0.00 | 29 | 1009.9 |
| 20260503225507 | 59 | 332 | 4.0 | 13.0 | 0.00 | 0.00 | 0.00 | 28 | 1009.8 |
| 20260503225009 | 59 | 292 | 4.0 | 13.0 | 0.00 | 0.00 | 0.00 | 28 | 1009.8 |
| 20260503224527 | 59 | 304 | 4.0 | 13.0 | 0.00 | 0.00 | 0.00 | 28 | 1009.7 |
| 20260503224009 | 59 | 272 | 1.0 | 10.0 | 0.00 | 0.00 | 0.00 | 28 | 1009.7 |
| 20260503223510 | 59 | 337 | 4.0 | 13.0 | 0.00 | 0.00 | 0.00 | 27 | 1009.7 |
| 20260503223023 | 59 | 306 | 5.0 | 18.0 | 0.00 | 0.00 | 0.00 | 27 | 1009.7 |
| 20260503222510 | 59 | 311 | 5.0 | 18.0 | 0.00 | 0.00 | 0.00 | 27 | 1009.8 |
| 20260503222010 | 59 | 12 | 4.0 | 13.0 | 0.00 | 0.00 | 0.00 | 27 | 1009.7 |
| 20260503221532 | 59 | 298 | 7.0 | 14.0 | 0.00 | 0.00 | 0.00 | 26 | 1009.8 |
| 20260503221011 | 59 | 294 | 4.0 | 14.0 | 0.00 | 0.00 | 0.00 | 26 | 1009.8 |
| 20260503220511 | 59 | 327 | 5.0 | 10.0 | 0.00 | 0.00 | 0.00 | 26 | 1009.7 |
| 20260503220026 | 60 | 306 | 1.0 | 10.0 | 0.00 | 0.00 | 0.00 | 26 | 1009.7 |
| 20260503215510 | 59 | 238 | 2.0 | 11.0 | 0.00 | 0.00 | 0.00 | 26 | 1009.7 |
| 20260503215011 | 59 | 313 | 4.0 | 11.0 | 0.00 | 0.00 | 0.00 | 26 | 1009.7 |
| 20260503214527 | 59 | 301 | 3.0 | 13.0 | 0.00 | 0.00 | 0.00 | 26 | 1009.8 |
| 20260503214017 | 59 | 352 | 5.0 | 13.0 | 0.00 | 0.00 | 0.00 | 26 | 1009.8 |
| 20260503213514 | 59 | 310 | 3.0 | 16.0 | 0.00 | 0.00 | 0.00 | 26 | 1009.7 |
| 20260503213029 | 59 | 301 | 6.0 | 17.0 | 0.00 | 0.00 | 0.00 | 26 | 1009.7 |
| 20260503212509 | 59 | 286 | 9.0 | 17.0 | 0.00 | 0.00 | 0.00 | 26 | 1009.7 |
| 20260503212012 | 59 | 330 | 7.0 | 14.0 | 0.00 | 0.00 | 0.00 | 26 | 1009.6 |
| 20260503211525 | 59 | 352 | 6.0 | 15.0 | 0.00 | 0.00 | 0.00 | 26 | 1009.7 |
| 20260503211007 | 59 | 180 | 7.0 | 15.0 | 0.00 | 0.00 | 0.00 | 26 | 1009.7 |
| 20260503210504 | 59 | 256 | 6.0 | 16.0 | 0.00 | 0.00 | 0.00 | 26 | 1009.7 |
| 20260503210011 | 58 | 328 | 7.0 | 16.0 | 0.00 | 0.00 | 0.00 | 26 | 1009.6 |
| 20260503205507 | 58 | 9 | 7.0 | 15.0 | 0.00 | 0.00 | 0.00 | 27 | 1009.6 |
| 20260503205008 | 59 | 287 | 8.0 | 15.0 | 0.00 | 0.00 | 0.00 | 27 | 1009.6 |
| 20260503204511 | 59 | 246 | 7.0 | 15.0 | 0.00 | 0.00 | 0.00 | 26 | 1009.6 |
| 20260503204008 | 59 | 13 | 7.0 | 15.0 | 0.00 | 0.00 | 0.00 | 27 | 1009.5 |
| 20260503203507 | 58 | 328 | 5.0 | 14.0 | 0.00 | 0.00 | 0.00 | 27 | 1009.5 |
| 20260503203020 | 59 | 337 | 5.0 | 17.0 | 0.00 | 0.00 | 0.00 | 27 | 1009.6 |
| 20260503202514 | 59 | 271 | 7.0 | 17.0 | 0.00 | 0.00 | 0.00 | 27 | 1009.5 |
| 20260503202010 | 58 | 263 | 3.0 | 13.0 | 0.00 | 0.00 | 0.00 | 28 | 1009.5 |
| 20260503201528 | 58 | 270 | 5.0 | 11.0 | 0.00 | 0.00 | 0.00 | 28 | 1009.5 |
| 20260503201011 | 58 | 69 | 6.0 | 10.0 | 0.00 | 0.00 | 0.00 | 28 | 1009.7 |
| 20260503200510 | 57 | 332 | 3.0 | 14.0 | 0.00 | 0.00 | 0.00 | 29 | 1009.5 |
| 20260503200010 | 57 | 343 | 7.0 | 17.0 | 0.00 | 0.00 | 0.00 | 29 | 1009.8 |
| 20260503195503 | 57 | 314 | 6.0 | 17.0 | 0.00 | 0.00 | 0.00 | 29 | 1009.9 |
| 20260503195006 | 57 | 17 | 11.0 | 17.0 | 0.00 | 0.00 | 0.00 | 28 | 1009.8 |
| 20260503194510 | 57 | 341 | 3.0 | 13.0 | 0.00 | 0.00 | 0.00 | 29 | 1010.0 |
| 20260503194007 | 57 | 314 | 6.0 | 15.0 | 0.00 | 0.00 | 0.00 | 29 | 1010.0 |
| 20260503193506 | 57 | 335 | 6.0 | 17.0 | 0.00 | 0.00 | 0.00 | 29 | 1010.1 |
| 20260503193016 | 57 | 324 | 8.0 | 17.0 | 0.00 | 0.00 | 0.00 | 30 | 1010.2 |
| 20260503192507 | 57 | 321 | 4.0 | 14.0 | 0.00 | 0.00 | 0.00 | 30 | 1010.1 |
| 20260503192011 | 57 | 31 | 3.0 | 14.0 | 0.00 | 0.00 | 0.00 | 31 | 1010.1 |
| 20260503191522 | 56 | 323 | 5.0 | 15.0 | 0.00 | 0.00 | 0.00 | 31 | 1010.2 |
| 20260503191007 | 57 | 92 | 6.0 | 15.0 | 0.00 | 0.00 | 0.00 | 31 | 1010.3 |
| 20260503190507 | 57 | 263 | 6.0 | 14.0 | 0.00 | 0.00 | 0.00 | 31 | 1010.2 |
| 20260503190024 | 56 | 17 | 7.0 | 13.0 | 0.00 | 0.00 | 0.00 | 32 | 1010.2 |
| 20260503185510 | 56 | 25 | 7.0 | 12.0 | 0.00 | 0.00 | 0.00 | 31 | 1010.3 |
| 20260503185011 | 56 | 277 | 2.0 | 17.0 | 0.00 | 0.00 | 0.00 | 33 | 1010.3 |
| 20260503184515 | 55 | 331 | 3.0 | 17.0 | 0.00 | 0.00 | 0.00 | 33 | 1010.4 |
| 20260503184004 | 55 | 291 | 5.0 | 15.0 | 0.00 | 0.00 | 0.00 | 33 | 1010.6 |
| 20260503183512 | 55 | 221 | 4.0 | 15.0 | 0.00 | 0.00 | 0.00 | 33 | 1010.4 |
| 20260503183024 | 54 | 19 | 7.0 | 15.0 | 0.00 | 0.00 | 0.00 | 34 | 1010.4 |
| 20260503182507 | 54 | 324 | 7.0 | 15.0 | 0.00 | 0.00 | 0.00 | 34 | 1010.6 |
| 20260503182009 | 54 | 263 | 4.0 | 18.0 | 0.00 | 0.00 | 0.00 | 34 | 1010.6 |
| 20260503181528 | 54 | 329 | 4.0 | 18.0 | 0.00 | 0.00 | 0.00 | 35 | 1010.6 |
| 20260503181008 | 54 | 300 | 5.0 | 13.0 | 0.00 | 0.00 | 0.00 | 36 | 1010.6 |
| 20260503180510 | 54 | 307 | 5.0 | 16.0 | 0.00 | 0.00 | 0.00 | 36 | 1010.6 |
| 20260503180024 | 53 | 315 | 7.0 | 16.0 | 0.00 | 0.00 | 0.00 | 37 | 1010.5 |
| 20260503175510 | 53 | 223 | 5.0 | 13.0 | 0.00 | 0.00 | 0.00 | 36 | 1010.7 |
| 20260503175010 | 53 | 44 | 5.0 | 17.0 | 0.00 | 0.00 | 0.00 | 36 | 1010.7 |
| 20260503174523 | 53 | 57 | 6.0 | 17.0 | 0.00 | 0.00 | 0.00 | 35 | 1010.6 |
| 20260503174008 | 53 | 267 | 5.0 | 15.0 | 0.00 | 0.00 | 0.00 | 36 | 1010.7 |
| 20260503173507 | 54 | 19 | 8.0 | 15.0 | 0.00 | 0.00 | 0.00 | 35 | 1010.7 |
| 20260503173035 | 54 | 5 | 7.0 | 17.0 | 0.00 | 0.00 | 0.00 | 37 | 1010.7 |
| 20260503172505 | 53 | 98 | 2.0 | 17.0 | 0.00 | 0.00 | 0.00 | 38 | 1010.9 |
| 20260503172007 | 53 | 306 | 6.0 | 16.0 | 0.00 | 0.00 | 0.00 | 35 | 1010.9 |
| 20260503171517 | 53 | 331 | 7.0 | 16.0 | 0.00 | 0.00 | 0.00 | 36 | 1010.9 |
| 20260503171007 | 53 | 315 | 6.0 | 15.0 | 0.00 | 0.00 | 0.00 | 37 | 1011.0 |
| 20260503170507 | 52 | 5 | 4.0 | 15.0 | 0.00 | 0.00 | 0.00 | 38 | 1011.0 |
| 20260503151006 | 50 | 120 | 3.0 | 13.0 | 0.00 | 0.00 | 0.00 | 41 | 1011.3 |
| 20260503150510 | 50 | 298 | 2.0 | 13.0 | 0.00 | 0.00 | 0.00 | 41 | 1011.3 |